Weather History for KSIY - March, 2013

Change the Weather History Date:

Wednesday, March 27, 2013

  Actual Average Record
Temperature  
Mean Temperature 51 °F 43 °F  
Max Temperature 63 °F 57 °F 78 °F (1986)
Min Temperature 38 °F 30 °F 17 °F (2008)
Degree Days  
Heating Degree Days 14 22  
Month to date heating degree days 568 599  
Since 1 July heating degree days 4308 4476  
Cooling Degree Days 0 0  
Month to date cooling degree days 0 0  
Year to date cooling degree days 0 0  
Moisture  
Dew Point 39 °F    
Average Humidity 70    
Maximum Humidity 100    
Minimum Humidity 39    
Precipitation  
Precipitation T in 0.07 in 0.95 in (1985)
Month to date precipitation 0.36 2.01  
Year to date precipitation 1.40 6.22  
Sea Level Pressure  
Sea Level Pressure 29.94 in    
Wind  
Wind Speed 8 mph (SE)    
Max Wind Speed 25 mph    
Max Gust Speed 29 mph    
Visibility 10 miles    
Events Rain    
T = Trace of Precipitation, MM = Missing Value Source: NWS Daily Summary

Daily Weather History Graph

Daily Weather History Graph

Search for Another Location

Airport or City:

Trip Planner

Search our weather history database for the weather conditions in past years. The results will help you decide how hot, cold, wet, or windy it might be!

Date:

Astronomy

Mar. 27, 2013 Rise Set
Actual Time 7:00 AM PDT 7:30 PM PDT
Civil Twilight 6:32 AM PDT 7:58 PM PDT
Nautical Twilight 5:59 AM PDT 8:31 PM PDT
Astronomical Twilight 5:26 AM PDT 9:05 PM PDT
Moon 8:21 PM PDT (3/27) 6:54 AM PDT (3/27)
Length of Visible Light 13h 25m
Length of Day
12h 29m
Full, 100% of the Moon is Illuminated
Mar 27
Full
Apr 2
Last Quarter
Apr 10
New
Apr 18
First Quarter
Apr 25
Full

Hourly Weather History & Observations

Time (PDT) Temp. Windchill Dew Point Humidity Pressure Visibility Wind Dir Wind Speed Gust Speed Precip Events Conditions
12:53 AM 46.9 °F - 43.0 °F 86% 29.98 in 10.0 mi NNE 5.8 mph - 0.01 in   Overcast
1:53 AM 43.0 °F 40.3 °F 41.0 °F 93% 29.96 in 10.0 mi NNW 4.6 mph - N/A   Mostly Cloudy
2:53 AM 44.1 °F - 41.0 °F 89% 29.95 in 10.0 mi Calm Calm - 0.00 in Rain Light Rain
3:53 AM 44.1 °F - 39.9 °F 85% 29.95 in 10.0 mi Calm Calm - 0.00 in   Overcast
4:53 AM 42.1 °F 40.2 °F 39.9 °F 92% 29.94 in 10.0 mi North 3.5 mph - N/A   Mostly Cloudy
5:40 AM 37.4 °F - 37.4 °F 100% 29.91 in 2.5 mi Calm Calm - N/A   Scattered Clouds
5:53 AM 39.9 °F - 39.0 °F 97% 29.94 in 10.0 mi Calm Calm - N/A   Mostly Cloudy
6:53 AM 39.0 °F 36.8 °F 36.0 °F 89% 29.95 in 10.0 mi ENE 3.5 mph - N/A   Scattered Clouds
7:53 AM 41.0 °F - 39.0 °F 93% 29.96 in 10.0 mi Calm Calm - N/A   Scattered Clouds
8:53 AM 46.0 °F 44.8 °F 41.0 °F 83% 29.96 in 10.0 mi NNE 3.5 mph - N/A   Clear
9:53 AM 50.0 °F - 42.1 °F 74% 29.96 in 10.0 mi Calm Calm - N/A   Clear
10:53 AM 51.1 °F - 42.1 °F 71% 29.96 in 10.0 mi Calm Calm - N/A   Mostly Cloudy
11:53 AM 55.9 °F - 43.0 °F 62% 29.94 in 10.0 mi Variable 5.8 mph - N/A   Partly Cloudy
12:53 PM 59.0 °F - 37.9 °F 46% 29.92 in 10.0 mi West 17.3 mph 23.0 mph N/A   Overcast
1:53 PM 61.0 °F - 36.0 °F 39% 29.92 in 10.0 mi South 18.4 mph - N/A   Mostly Cloudy
2:53 PM 60.1 °F - 35.1 °F 39% 29.91 in 10.0 mi SSE 17.3 mph - N/A   Overcast
3:53 PM 61.0 °F - 37.0 °F 41% 29.90 in 10.0 mi SSE 16.1 mph - N/A   Mostly Cloudy
4:53 PM 61.0 °F - 37.9 °F 42% 29.90 in 10.0 mi SSE 23.0 mph 28.8 mph N/A   Clear
5:53 PM 59.0 °F - 37.9 °F 46% 29.90 in 10.0 mi South 23.0 mph 27.6 mph N/A   Mostly Cloudy
6:53 PM 55.9 °F - 39.0 °F 53% 29.92 in 10.0 mi South 20.7 mph 25.3 mph N/A   Partly Cloudy
7:53 PM 55.0 °F - 39.9 °F 57% 29.94 in 10.0 mi South 15.0 mph - N/A   Overcast
8:53 PM 53.1 °F - 39.0 °F 59% 29.95 in 10.0 mi South 10.4 mph - N/A   Scattered Clouds
9:53 PM 50.0 °F - 39.9 °F 68% 29.96 in 10.0 mi WSW 4.6 mph - N/A   Mostly Cloudy
10:53 PM 46.9 °F - 39.9 °F 77% 29.99 in 10.0 mi NE 3.5 mph - N/A   Overcast
11:53 PM 48.0 °F - 41.0 °F 77% 29.98 in 10.0 mi ENE 8.1 mph - N/A   Mostly Cloudy